Tracking 30995 objects as of 5-Jul-2025
HD Live streaming from Space Station
objects crossing your sky now

CZ-3B DEB

Track CZ-3B DEB now!


NORAD ID: 40185
Int'l Code: 2011-077J
Perigee: 506.4 km
Apogee: 41,288.6 km
Inclination: 26.0 °
Period: 746.9 minutes
Semi major axis: 27268 km
RCS: Unknown
Launch date: December 19, 2011
Source: People's Republic of China (PRC)
Launch site: Xichang Space Center, China (XSC)

Note: This is SATELLITE DEBRIS
Your satellite tracking list
STARLINK-3942
Track 1 satellite(s)




NASA's NSSDC Master Catalog

Two Line Element Set (TLE):
1 40185U 11077J   25185.28573760 -.00000156  00000-0  17561-2 0  9998
2 40185  25.9950 340.4769 7477912  89.3315 347.2409  1.92801766 78610
Source of the keplerian elements: AFSPC